Year,Month,Day,Hour,Minute,Value (Times are PST for temperature in C)
2015,07,05,00,00,22.60
2015,07,05,00,01,22.60
2015,07,05,00,02,22.60
2015,07,05,00,03,22.50
2015,07,05,00,04,22.50
2015,07,05,00,05,22.40
2015,07,05,00,06,22.40
2015,07,05,00,07,22.30
2015,07,05,00,08,22.30
2015,07,05,00,09,22.30
2015,07,05,00,10,22.20
2015,07,05,00,11,22.10
2015,07,05,00,12,22.00
2015,07,05,00,13,21.90
2015,07,05,00,14,21.80
2015,07,05,00,15,21.80
2015,07,05,00,16,21.70
2015,07,05,00,17,21.70
2015,07,05,00,18,21.70
2015,07,05,00,19,21.70
2015,07,05,00,20,21.60
2015,07,05,00,21,21.60
2015,07,05,00,22,21.60
2015,07,05,00,23,21.60
2015,07,05,00,24,21.60
2015,07,05,00,25,21.50
2015,07,05,00,26,21.40
2015,07,05,00,27,21.40
2015,07,05,00,28,21.40
2015,07,05,00,29,21.30
2015,07,05,00,30,21.30
2015,07,05,00,31,21.20
2015,07,05,00,32,21.20
2015,07,05,00,33,21.20
2015,07,05,00,34,21.20
2015,07,05,00,35,21.20
2015,07,05,00,36,21.20
2015,07,05,00,37,21.20
2015,07,05,00,38,21.20
2015,07,05,00,39,21.20
2015,07,05,00,40,21.20
2015,07,05,00,41,21.20
2015,07,05,00,42,21.30
2015,07,05,00,43,21.30
2015,07,05,00,44,21.40
2015,07,05,00,45,21.40
2015,07,05,00,46,21.50
2015,07,05,00,47,21.60
2015,07,05,00,48,21.70
2015,07,05,00,49,21.80
2015,07,05,00,50,21.90
2015,07,05,00,51,22.00
2015,07,05,00,52,22.20
2015,07,05,00,53,22.30
2015,07,05,00,54,22.40
2015,07,05,00,55,22.50
2015,07,05,00,56,22.60
2015,07,05,00,57,22.70
2015,07,05,00,58,22.80
2015,07,05,00,59,22.90
2015,07,05,01,00,23.00
2015,07,05,01,01,23.00
2015,07,05,01,02,23.10
2015,07,05,01,03,23.20
2015,07,05,01,04,23.20
2015,07,05,01,05,23.30
2015,07,05,01,06,23.30
2015,07,05,01,07,23.30
2015,07,05,01,08,23.30
2015,07,05,01,09,23.40
2015,07,05,01,10,23.40
2015,07,05,01,11,23.40
2015,07,05,01,12,23.50
2015,07,05,01,13,23.50
2015,07,05,01,14,23.60
2015,07,05,01,15,23.60
2015,07,05,01,16,23.70
2015,07,05,01,17,23.70
2015,07,05,01,18,23.70
2015,07,05,01,19,23.60
2015,07,05,01,20,23.60
2015,07,05,01,21,23.50
2015,07,05,01,22,23.40
2015,07,05,01,23,23.40
2015,07,05,01,24,23.40
2015,07,05,01,25,23.40
2015,07,05,01,26,23.40
2015,07,05,01,27,23.50
2015,07,05,01,28,23.60
2015,07,05,01,29,23.70
2015,07,05,01,30,23.80
2015,07,05,01,31,23.90
2015,07,05,01,32,24.00
2015,07,05,01,33,24.00
2015,07,05,01,34,24.10
2015,07,05,01,35,24.10
2015,07,05,01,36,24.10
2015,07,05,01,37,24.10
2015,07,05,01,38,24.00
2015,07,05,01,39,23.90
2015,07,05,01,40,23.80
2015,07,05,01,41,23.70
2015,07,05,01,42,23.70
2015,07,05,01,43,23.70
2015,07,05,01,44,23.70
2015,07,05,01,45,23.70
2015,07,05,01,46,23.70
2015,07,05,01,47,23.70
2015,07,05,01,48,23.70
2015,07,05,01,49,23.70
2015,07,05,01,50,23.70
2015,07,05,01,51,23.70
2015,07,05,01,52,23.60
2015,07,05,01,53,23.60
2015,07,05,01,54,23.60
2015,07,05,01,55,23.60
2015,07,05,01,56,23.60
2015,07,05,01,57,23.60
2015,07,05,01,58,23.60
2015,07,05,01,59,23.70
2015,07,05,02,00,23.70
2015,07,05,02,01,23.70
2015,07,05,02,02,23.70
2015,07,05,02,03,23.70
2015,07,05,02,04,23.60
2015,07,05,02,05,23.60
2015,07,05,02,06,23.50
2015,07,05,02,07,23.40
2015,07,05,02,08,23.30
2015,07,05,02,09,23.30
2015,07,05,02,10,23.20
2015,07,05,02,11,23.10
2015,07,05,02,12,23.10
2015,07,05,02,13,23.00
2015,07,05,02,14,22.90
2015,07,05,02,15,22.80
2015,07,05,02,16,22.80
2015,07,05,02,17,22.70
2015,07,05,02,18,22.70
2015,07,05,02,19,22.60
2015,07,05,02,20,22.60
2015,07,05,02,21,22.50
2015,07,05,02,22,22.50
2015,07,05,02,23,22.40
2015,07,05,02,24,22.40
2015,07,05,02,25,22.30
2015,07,05,02,26,22.20
2015,07,05,02,27,22.20
2015,07,05,02,28,22.10
2015,07,05,02,29,22.10
2015,07,05,02,30,22.00
2015,07,05,02,31,22.00
2015,07,05,02,32,21.90
2015,07,05,02,33,21.80
2015,07,05,02,34,21.80
2015,07,05,02,35,21.80
2015,07,05,02,36,21.80
2015,07,05,02,37,21.80
2015,07,05,02,38,21.80
2015,07,05,02,39,21.80
2015,07,05,02,40,21.80
2015,07,05,02,41,21.80
2015,07,05,02,42,21.80
2015,07,05,02,43,21.80
2015,07,05,02,44,21.70
2015,07,05,02,45,21.70
2015,07,05,02,46,21.60
2015,07,05,02,47,21.60
2015,07,05,02,48,21.50
2015,07,05,02,49,21.40
2015,07,05,02,50,21.30
2015,07,05,02,51,21.20
2015,07,05,02,52,21.20
2015,07,05,02,53,21.10
2015,07,05,02,54,21.00
2015,07,05,02,55,21.00
2015,07,05,02,56,20.90
2015,07,05,02,57,20.90
2015,07,05,02,58,20.90
2015,07,05,02,59,20.90
2015,07,05,03,00,20.80
2015,07,05,03,01,20.80
2015,07,05,03,02,20.70
2015,07,05,03,03,20.70
2015,07,05,03,04,20.70
2015,07,05,03,05,20.70
2015,07,05,03,06,20.70
2015,07,05,03,07,20.70
2015,07,05,03,08,20.70
2015,07,05,03,09,20.80
2015,07,05,03,10,20.80
2015,07,05,03,11,20.90
2015,07,05,03,12,21.00
2015,07,05,03,13,21.20
2015,07,05,03,14,21.40
2015,07,05,03,15,21.60
2015,07,05,03,16,21.80
2015,07,05,03,17,21.90
2015,07,05,03,18,22.10
2015,07,05,03,19,22.20
2015,07,05,03,20,22.30
2015,07,05,03,21,22.50
2015,07,05,03,22,22.60
2015,07,05,03,23,22.70
2015,07,05,03,24,22.70
2015,07,05,03,25,22.80
2015,07,05,03,26,22.80
2015,07,05,03,27,22.80
2015,07,05,03,28,22.90
2015,07,05,03,29,22.90
2015,07,05,03,30,22.90
2015,07,05,03,31,22.90
2015,07,05,03,32,22.90
2015,07,05,03,33,22.90
2015,07,05,03,34,22.90
2015,07,05,03,35,22.90
2015,07,05,03,36,22.90
2015,07,05,03,37,22.90
2015,07,05,03,38,22.80
2015,07,05,03,39,22.80
2015,07,05,03,40,22.70
2015,07,05,03,41,22.60
2015,07,05,03,42,22.60
2015,07,05,03,43,22.60
2015,07,05,03,44,22.50
2015,07,05,03,45,22.50
2015,07,05,03,46,22.40
2015,07,05,03,47,22.30
2015,07,05,03,48,22.30
2015,07,05,03,49,22.20
2015,07,05,03,50,22.10
2015,07,05,03,51,22.00
2015,07,05,03,52,21.90
2015,07,05,03,53,21.80
2015,07,05,03,54,21.70
2015,07,05,03,55,21.50
2015,07,05,03,56,21.40
2015,07,05,03,57,21.30
2015,07,05,03,58,21.20
2015,07,05,03,59,21.10
2015,07,05,04,00,21.00
2015,07,05,04,01,20.90
2015,07,05,04,02,20.90
2015,07,05,04,03,20.80
2015,07,05,04,04,20.80
2015,07,05,04,05,20.80
2015,07,05,04,06,20.80
2015,07,05,04,07,20.70
2015,07,05,04,08,20.70
2015,07,05,04,09,20.60
2015,07,05,04,10,20.60
2015,07,05,04,11,20.50
2015,07,05,04,12,20.50
2015,07,05,04,13,20.50
2015,07,05,04,14,20.50
2015,07,05,04,15,20.50
2015,07,05,04,16,20.40
2015,07,05,04,17,20.40
2015,07,05,04,18,20.30
2015,07,05,04,19,20.30
2015,07,05,04,20,20.20
2015,07,05,04,21,20.20
2015,07,05,04,22,20.20
2015,07,05,04,23,20.20
2015,07,05,04,24,20.20
2015,07,05,04,25,20.30
2015,07,05,04,26,20.30
2015,07,05,04,27,20.40
2015,07,05,04,28,20.40
2015,07,05,04,29,20.40
2015,07,05,04,30,20.40
2015,07,05,04,31,20.50
2015,07,05,04,32,20.50
2015,07,05,04,33,20.50
2015,07,05,04,34,20.50
2015,07,05,04,35,20.50
2015,07,05,04,36,20.40
2015,07,05,04,37,20.40
2015,07,05,04,38,20.40
2015,07,05,04,39,20.40
2015,07,05,04,40,20.30
2015,07,05,04,41,20.30
2015,07,05,04,42,20.30
2015,07,05,04,43,20.30
2015,07,05,04,44,20.30
2015,07,05,04,45,20.30
2015,07,05,04,46,20.30
2015,07,05,04,47,20.20
2015,07,05,04,48,20.20
2015,07,05,04,49,20.20
2015,07,05,04,50,20.20
2015,07,05,04,51,20.10
2015,07,05,04,52,20.10
2015,07,05,04,53,20.00
2015,07,05,04,54,20.00
2015,07,05,04,55,19.90
2015,07,05,04,56,19.80
2015,07,05,04,57,19.80
2015,07,05,04,58,19.70
2015,07,05,04,59,19.70
2015,07,05,05,00,19.60
2015,07,05,05,01,19.60
2015,07,05,05,02,19.60
2015,07,05,05,03,19.60
2015,07,05,05,04,19.50
2015,07,05,05,05,19.40
2015,07,05,05,06,19.40
2015,07,05,05,07,19.30
2015,07,05,05,08,19.20
2015,07,05,05,09,19.10
2015,07,05,05,10,19.10
2015,07,05,05,11,19.00
2015,07,05,05,12,18.90
2015,07,05,05,13,18.90
2015,07,05,05,14,18.80
2015,07,05,05,15,18.80
2015,07,05,05,16,18.80
2015,07,05,05,17,18.80
2015,07,05,05,18,18.70
2015,07,05,05,19,18.70
2015,07,05,05,20,18.60
2015,07,05,05,21,18.60
2015,07,05,05,22,18.50
2015,07,05,05,23,18.40
2015,07,05,05,24,18.40
2015,07,05,05,25,18.40
2015,07,05,05,26,18.30
2015,07,05,05,27,18.30
2015,07,05,05,28,18.30
2015,07,05,05,29,18.30
2015,07,05,05,30,18.40
2015,07,05,05,31,18.40
2015,07,05,05,32,18.40
2015,07,05,05,33,18.40
2015,07,05,05,34,18.40
2015,07,05,05,35,18.40
2015,07,05,05,36,18.40
2015,07,05,05,37,18.40
2015,07,05,05,38,18.40
2015,07,05,05,39,18.40
2015,07,05,05,40,18.30
2015,07,05,05,41,18.30
2015,07,05,05,42,18.30
2015,07,05,05,43,18.30
2015,07,05,05,44,18.30
2015,07,05,05,45,18.30
2015,07,05,05,46,18.30
2015,07,05,05,47,18.30
2015,07,05,05,48,18.30
2015,07,05,05,49,18.30
2015,07,05,05,50,18.30
2015,07,05,05,51,18.30
2015,07,05,05,52,18.30
2015,07,05,05,53,18.30
2015,07,05,05,54,18.30
2015,07,05,05,55,18.30
2015,07,05,05,56,18.30
2015,07,05,05,57,18.30
2015,07,05,05,58,18.20
2015,07,05,05,59,18.20
2015,07,05,06,00,18.20
2015,07,05,06,01,18.20
2015,07,05,06,02,18.20
2015,07,05,06,03,18.20
2015,07,05,06,04,18.20
2015,07,05,06,05,18.20
2015,07,05,06,06,18.30
2015,07,05,06,07,18.40
2015,07,05,06,08,18.40
2015,07,05,06,09,18.40
2015,07,05,06,10,18.40
2015,07,05,06,11,18.40
2015,07,05,06,12,18.40
2015,07,05,06,13,18.30
2015,07,05,06,14,18.30
2015,07,05,06,15,18.30
2015,07,05,06,16,18.30
2015,07,05,06,17,18.30
2015,07,05,06,18,18.30
2015,07,05,06,19,18.30
2015,07,05,06,20,18.30
2015,07,05,06,21,18.20
2015,07,05,06,22,18.20
2015,07,05,06,23,18.30
2015,07,05,06,24,18.30
2015,07,05,06,25,18.30
2015,07,05,06,26,18.30
2015,07,05,06,27,18.20
2015,07,05,06,28,18.20
2015,07,05,06,29,18.20
2015,07,05,06,30,18.20
2015,07,05,06,31,18.20
2015,07,05,06,32,18.20
2015,07,05,06,33,18.20
2015,07,05,06,34,18.20
2015,07,05,06,35,18.30
2015,07,05,06,36,18.30
2015,07,05,06,37,18.30
2015,07,05,06,38,18.30
2015,07,05,06,39,18.40
2015,07,05,06,40,18.40
2015,07,05,06,41,18.50
2015,07,05,06,42,18.50
2015,07,05,06,43,18.50
2015,07,05,06,44,18.60
2015,07,05,06,45,18.60
2015,07,05,06,46,18.60
2015,07,05,06,47,18.60
2015,07,05,06,48,18.60
2015,07,05,06,49,18.50
2015,07,05,06,50,18.50
2015,07,05,06,51,18.60
2015,07,05,06,52,18.60
2015,07,05,06,53,18.60
2015,07,05,06,54,18.70
2015,07,05,06,55,18.70
2015,07,05,06,56,18.70
2015,07,05,06,57,18.80
2015,07,05,06,58,18.80
2015,07,05,06,59,18.80
2015,07,05,07,00,18.90
2015,07,05,07,01,18.90
2015,07,05,07,02,19.00
2015,07,05,07,03,19.00
2015,07,05,07,04,19.10
2015,07,05,07,05,19.10
2015,07,05,07,06,19.20
2015,07,05,07,07,19.20
2015,07,05,07,08,19.20
2015,07,05,07,09,19.20
2015,07,05,07,10,19.20
2015,07,05,07,11,19.30
2015,07,05,07,12,19.30
2015,07,05,07,13,19.30
2015,07,05,07,14,19.40
2015,07,05,07,15,19.40
2015,07,05,07,16,19.40
2015,07,05,07,17,19.40
2015,07,05,07,18,19.40
2015,07,05,07,19,19.40
2015,07,05,07,20,19.40
2015,07,05,07,21,19.40
2015,07,05,07,22,19.30
2015,07,05,07,23,19.30
2015,07,05,07,24,19.30
2015,07,05,07,25,19.30
2015,07,05,07,26,19.30
2015,07,05,07,27,19.30
2015,07,05,07,28,19.30
2015,07,05,07,29,19.40
2015,07,05,07,30,19.40
2015,07,05,07,31,19.40
2015,07,05,07,32,19.50
2015,07,05,07,33,19.50
2015,07,05,07,34,19.60
2015,07,05,07,35,19.60
2015,07,05,07,36,19.60
2015,07,05,07,37,19.70
2015,07,05,07,38,19.70
2015,07,05,07,39,19.70
2015,07,05,07,40,19.80
2015,07,05,07,41,19.80
2015,07,05,07,42,19.80
2015,07,05,07,43,19.70
2015,07,05,07,44,19.70
2015,07,05,07,45,19.70
2015,07,05,07,46,19.70
2015,07,05,07,47,19.60
2015,07,05,07,48,19.60
2015,07,05,07,49,19.60
2015,07,05,07,50,19.60
2015,07,05,07,51,19.50
2015,07,05,07,52,19.50
2015,07,05,07,53,19.50
2015,07,05,07,54,19.50
2015,07,05,07,55,19.50
2015,07,05,07,56,19.40
2015,07,05,07,57,19.40
2015,07,05,07,58,19.40
2015,07,05,07,59,19.40
2015,07,05,08,00,19.30
2015,07,05,08,01,19.30
2015,07,05,08,02,19.30
2015,07,05,08,03,19.30
2015,07,05,08,04,19.40
2015,07,05,08,05,19.40
2015,07,05,08,06,19.40
2015,07,05,08,07,19.40
2015,07,05,08,08,19.50
2015,07,05,08,09,19.50
2015,07,05,08,10,19.60
2015,07,05,08,11,19.60
2015,07,05,08,12,19.70
2015,07,05,08,13,19.80
2015,07,05,08,14,19.90
2015,07,05,08,15,19.90
2015,07,05,08,16,20.00
2015,07,05,08,17,20.00
2015,07,05,08,18,20.00
2015,07,05,08,19,20.10
2015,07,05,08,20,20.10
2015,07,05,08,21,20.10
2015,07,05,08,22,20.20
2015,07,05,08,23,20.20
2015,07,05,08,24,20.20
2015,07,05,08,25,20.20
2015,07,05,08,26,20.20
2015,07,05,08,27,20.20
2015,07,05,08,28,20.20
2015,07,05,08,29,20.20
2015,07,05,08,30,20.20
2015,07,05,08,31,20.20
2015,07,05,08,32,20.20
2015,07,05,08,33,20.20
2015,07,05,08,34,20.10
2015,07,05,08,35,20.10
2015,07,05,08,36,20.10
2015,07,05,08,37,20.10
2015,07,05,08,38,20.10
2015,07,05,08,39,20.10
2015,07,05,08,40,20.10
2015,07,05,08,41,20.10
2015,07,05,08,42,20.10
2015,07,05,08,43,20.10
2015,07,05,08,44,20.10
2015,07,05,08,45,20.10
2015,07,05,08,46,20.20
2015,07,05,08,47,20.20
2015,07,05,08,48,20.20
2015,07,05,08,49,20.20
2015,07,05,08,50,20.20
2015,07,05,08,51,20.20
2015,07,05,08,52,20.20
2015,07,05,08,53,20.20
2015,07,05,08,54,20.30
2015,07,05,08,55,20.30
2015,07,05,08,56,20.30
2015,07,05,08,57,20.30
2015,07,05,08,58,20.30
2015,07,05,08,59,20.40
2015,07,05,09,00,20.40
2015,07,05,09,01,20.40
2015,07,05,09,02,20.40
2015,07,05,09,03,20.50
2015,07,05,09,04,20.50
2015,07,05,09,05,20.50
2015,07,05,09,06,20.60
2015,07,05,09,07,20.60
2015,07,05,09,08,20.60
2015,07,05,09,09,20.60
2015,07,05,09,10,20.60
2015,07,05,09,11,20.70
2015,07,05,09,12,20.70
2015,07,05,09,13,20.70
2015,07,05,09,14,20.70
2015,07,05,09,15,20.70
2015,07,05,09,16,20.80
2015,07,05,09,17,20.80
2015,07,05,09,18,20.80
2015,07,05,09,19,20.80
2015,07,05,09,20,20.90
2015,07,05,09,21,20.90
2015,07,05,09,22,20.90
2015,07,05,09,23,20.90
2015,07,05,09,24,21.00
2015,07,05,09,25,21.00
2015,07,05,09,26,21.00
2015,07,05,09,27,21.00
2015,07,05,09,28,21.10
2015,07,05,09,29,21.10
2015,07,05,09,30,21.10
2015,07,05,09,31,21.10
2015,07,05,09,32,21.20
2015,07,05,09,33,21.20
2015,07,05,09,34,21.20
2015,07,05,09,35,21.30
2015,07,05,09,36,21.30
2015,07,05,09,37,21.30
2015,07,05,09,38,21.40
2015,07,05,09,39,21.40
2015,07,05,09,40,21.50
2015,07,05,09,41,21.50
2015,07,05,09,42,21.60
2015,07,05,09,43,21.70
2015,07,05,09,44,21.80
2015,07,05,09,45,21.80
2015,07,05,09,46,21.80
2015,07,05,09,47,21.90
2015,07,05,09,48,21.90
2015,07,05,09,49,22.00
2015,07,05,09,50,22.10
2015,07,05,09,51,22.10
2015,07,05,09,52,22.20
2015,07,05,09,53,22.30
2015,07,05,09,54,22.30
2015,07,05,09,55,22.40
2015,07,05,09,56,22.50
2015,07,05,09,57,22.50
2015,07,05,09,58,22.50
2015,07,05,09,59,22.40
2015,07,05,10,00,22.40
2015,07,05,10,01,22.30
2015,07,05,10,02,22.30
2015,07,05,10,03,22.30
2015,07,05,10,04,22.30
2015,07,05,10,05,22.30
2015,07,05,10,06,22.30
2015,07,05,10,07,22.30
2015,07,05,10,08,22.40
2015,07,05,10,09,22.40
2015,07,05,10,10,22.50
2015,07,05,10,11,22.60
2015,07,05,10,12,22.60
2015,07,05,10,13,22.70
2015,07,05,10,14,22.70
2015,07,05,10,15,22.70
2015,07,05,10,16,22.70
2015,07,05,10,17,22.80
2015,07,05,10,18,22.80
2015,07,05,10,19,22.80
2015,07,05,10,20,22.80
2015,07,05,10,21,22.80
2015,07,05,10,22,22.80
2015,07,05,10,23,22.90
2015,07,05,10,24,22.90
2015,07,05,10,25,22.90
2015,07,05,10,26,22.90
2015,07,05,10,27,22.90
2015,07,05,10,28,22.90
2015,07,05,10,29,22.90
2015,07,05,10,30,23.00
2015,07,05,10,31,23.00
2015,07,05,10,32,23.00
2015,07,05,10,33,23.10
2015,07,05,10,34,23.10
2015,07,05,10,35,23.20
2015,07,05,10,36,23.20
2015,07,05,10,37,23.30
2015,07,05,10,38,23.30
2015,07,05,10,39,23.40
2015,07,05,10,40,23.50
2015,07,05,10,41,23.60
2015,07,05,10,42,23.60
2015,07,05,10,43,23.70
2015,07,05,10,44,23.80
2015,07,05,10,45,23.90
2015,07,05,10,46,23.90
2015,07,05,10,47,24.00
2015,07,05,10,48,24.00
2015,07,05,10,49,24.10
2015,07,05,10,50,24.10
2015,07,05,10,51,24.10
2015,07,05,10,52,24.00
2015,07,05,10,53,23.90
2015,07,05,10,54,23.80
2015,07,05,10,55,23.80
2015,07,05,10,56,23.70
2015,07,05,10,57,23.70
2015,07,05,10,58,23.70
2015,07,05,10,59,23.70
2015,07,05,11,00,23.70
2015,07,05,11,01,23.70
2015,07,05,11,02,23.70
2015,07,05,11,03,23.70
2015,07,05,11,04,23.70
2015,07,05,11,05,23.70
2015,07,05,11,06,23.70
2015,07,05,11,07,23.70
2015,07,05,11,08,23.70
2015,07,05,11,09,23.70
2015,07,05,11,10,23.70
2015,07,05,11,11,23.70
2015,07,05,11,12,23.70
2015,07,05,11,13,23.70
2015,07,05,11,14,23.80
2015,07,05,11,15,23.80
2015,07,05,11,16,23.80
2015,07,05,11,17,23.80
2015,07,05,11,18,23.80
2015,07,05,11,19,23.80
2015,07,05,11,20,23.80
2015,07,05,11,21,23.90
2015,07,05,11,22,23.90
2015,07,05,11,23,23.90
2015,07,05,11,24,24.00
2015,07,05,11,25,24.00
2015,07,05,11,26,24.10
2015,07,05,11,27,24.10
2015,07,05,11,28,24.10
2015,07,05,11,29,24.20
2015,07,05,11,30,24.20
2015,07,05,11,31,24.20
2015,07,05,11,32,24.30
2015,07,05,11,33,24.30
2015,07,05,11,34,24.30
2015,07,05,11,35,24.40
2015,07,05,11,36,24.40
2015,07,05,11,37,24.40
2015,07,05,11,38,24.50
2015,07,05,11,39,24.50
2015,07,05,11,40,24.60
2015,07,05,11,41,24.60
2015,07,05,11,42,24.60
2015,07,05,11,43,24.60
2015,07,05,11,44,24.70
2015,07,05,11,45,24.70
2015,07,05,11,46,24.70
2015,07,05,11,47,24.70
2015,07,05,11,48,24.70
2015,07,05,11,49,24.70
2015,07,05,11,50,24.80
2015,07,05,11,51,24.80
2015,07,05,11,52,24.80
2015,07,05,11,53,24.90
2015,07,05,11,54,24.90
2015,07,05,11,55,25.00
2015,07,05,11,56,25.10
2015,07,05,11,57,25.10
2015,07,05,11,58,25.10
2015,07,05,11,59,25.20
2015,07,05,12,00,25.20
2015,07,05,12,01,25.30
2015,07,05,12,02,25.30
2015,07,05,12,03,25.30
2015,07,05,12,04,25.40
2015,07,05,12,05,25.40
2015,07,05,12,06,25.40
2015,07,05,12,07,25.50
2015,07,05,12,08,25.50
2015,07,05,12,09,25.60
2015,07,05,12,10,25.60
2015,07,05,12,11,25.60
2015,07,05,12,12,25.70
2015,07,05,12,13,25.80
2015,07,05,12,14,25.80
2015,07,05,12,15,25.90
2015,07,05,12,16,25.90
2015,07,05,12,17,26.00
2015,07,05,12,18,26.10
2015,07,05,12,19,26.10
2015,07,05,12,20,26.20
2015,07,05,12,21,26.20
2015,07,05,12,22,26.30
2015,07,05,12,23,26.30
2015,07,05,12,24,26.30
2015,07,05,12,25,26.40
2015,07,05,12,26,26.40
2015,07,05,12,27,26.40
2015,07,05,12,28,26.40
2015,07,05,12,29,26.50
2015,07,05,12,30,26.50
2015,07,05,12,31,26.60
2015,07,05,12,32,26.60
2015,07,05,12,33,26.70
2015,07,05,12,34,26.70
2015,07,05,12,35,26.70
2015,07,05,12,36,26.70
2015,07,05,12,37,26.70
2015,07,05,12,38,26.70
2015,07,05,12,39,26.70
2015,07,05,12,40,26.70
2015,07,05,12,41,26.70
2015,07,05,12,42,26.80
2015,07,05,12,43,26.80
2015,07,05,12,44,26.80
2015,07,05,12,45,26.80
2015,07,05,12,46,26.90
2015,07,05,12,47,26.90
2015,07,05,12,48,27.00
2015,07,05,12,49,27.00
2015,07,05,12,50,27.10
2015,07,05,12,51,27.10
2015,07,05,12,52,27.20
2015,07,05,12,53,27.20
2015,07,05,12,54,27.20
2015,07,05,12,55,27.30
2015,07,05,12,56,27.30
2015,07,05,12,57,27.30
2015,07,05,12,58,27.40
2015,07,05,12,59,27.40
2015,07,05,13,00,27.40
2015,07,05,13,01,27.40
2015,07,05,13,02,27.50
2015,07,05,13,03,27.50
2015,07,05,13,04,27.50
2015,07,05,13,05,27.60
2015,07,05,13,06,27.60
2015,07,05,13,07,27.70
2015,07,05,13,08,27.70
2015,07,05,13,09,27.80
2015,07,05,13,10,27.80
2015,07,05,13,11,27.90
2015,07,05,13,12,27.90
2015,07,05,13,13,27.90
2015,07,05,13,14,27.90
2015,07,05,13,15,28.00
2015,07,05,13,16,28.00
2015,07,05,13,17,28.10
2015,07,05,13,18,28.10
2015,07,05,13,19,28.10
2015,07,05,13,20,28.20
2015,07,05,13,21,28.20
2015,07,05,13,22,28.20
2015,07,05,13,23,28.30
2015,07,05,13,24,28.30
2015,07,05,13,25,28.30
2015,07,05,13,26,28.30
2015,07,05,13,27,28.30
2015,07,05,13,28,28.30
2015,07,05,13,29,28.40
2015,07,05,13,30,28.40
2015,07,05,13,31,28.40
2015,07,05,13,32,28.40
2015,07,05,13,33,28.40
2015,07,05,13,34,28.40
2015,07,05,13,35,28.40
2015,07,05,13,36,28.40
2015,07,05,13,37,28.30
2015,07,05,13,38,28.40
2015,07,05,13,39,28.40
2015,07,05,13,40,28.40
2015,07,05,13,41,28.40
2015,07,05,13,42,28.40
2015,07,05,13,43,28.40
2015,07,05,13,44,28.50
2015,07,05,13,45,28.50
2015,07,05,13,46,28.50
2015,07,05,13,47,28.50
2015,07,05,13,48,28.50
2015,07,05,13,49,28.50
2015,07,05,13,50,28.50
2015,07,05,13,51,28.50
2015,07,05,13,52,28.50
2015,07,05,13,53,28.50
2015,07,05,13,54,28.50
2015,07,05,13,55,28.60
2015,07,05,13,56,28.60
2015,07,05,13,57,28.70
2015,07,05,13,58,28.70
2015,07,05,13,59,28.70
2015,07,05,14,00,28.70
2015,07,05,14,01,28.70
2015,07,05,14,02,28.80
2015,07,05,14,03,28.80
2015,07,05,14,04,28.80
2015,07,05,14,05,28.80
2015,07,05,14,06,28.90
2015,07,05,14,07,28.90
2015,07,05,14,08,29.00
2015,07,05,14,09,29.10
2015,07,05,14,10,29.10
2015,07,05,14,11,29.20
2015,07,05,14,12,29.20
2015,07,05,14,13,29.20
2015,07,05,14,14,29.30
2015,07,05,14,15,29.30
2015,07,05,14,16,29.30
2015,07,05,14,17,29.30
2015,07,05,14,18,29.30
2015,07,05,14,19,29.40
2015,07,05,14,20,29.40
2015,07,05,14,21,29.40
2015,07,05,14,22,29.40
2015,07,05,14,23,29.50
2015,07,05,14,24,29.50
2015,07,05,14,25,29.50
2015,07,05,14,26,29.60
2015,07,05,14,27,29.60
2015,07,05,14,28,29.60
2015,07,05,14,29,29.70
2015,07,05,14,30,29.70
2015,07,05,14,31,29.80
2015,07,05,14,32,29.80
2015,07,05,14,33,29.80
2015,07,05,14,34,29.90
2015,07,05,14,35,29.90
2015,07,05,14,36,29.90
2015,07,05,14,37,29.90
2015,07,05,14,38,30.00
2015,07,05,14,39,30.00
2015,07,05,14,40,30.10
2015,07,05,14,41,30.10
2015,07,05,14,42,30.10
2015,07,05,14,43,30.00
2015,07,05,14,44,30.00
2015,07,05,14,45,30.00
2015,07,05,14,46,30.00
2015,07,05,14,47,30.10
2015,07,05,14,48,30.10
2015,07,05,14,49,30.10
2015,07,05,14,50,30.20
2015,07,05,14,51,30.20
2015,07,05,14,52,30.30
2015,07,05,14,53,30.30
2015,07,05,14,54,30.40
2015,07,05,14,55,30.40
2015,07,05,14,56,30.50
2015,07,05,14,57,30.60
2015,07,05,14,58,30.60
2015,07,05,14,59,30.60
2015,07,05,15,00,30.60
2015,07,05,15,01,30.70
2015,07,05,15,02,30.70
2015,07,05,15,03,30.70
2015,07,05,15,04,30.70
2015,07,05,15,05,30.70
2015,07,05,15,06,30.80
2015,07,05,15,07,30.80
2015,07,05,15,08,30.90
2015,07,05,15,09,31.00
2015,07,05,15,10,31.00
2015,07,05,15,11,31.00
2015,07,05,15,12,31.10
2015,07,05,15,13,31.10
2015,07,05,15,14,31.10
2015,07,05,15,15,31.10
2015,07,05,15,16,31.10
2015,07,05,15,17,31.20
2015,07,05,15,18,31.20
2015,07,05,15,19,31.20
2015,07,05,15,20,31.20
2015,07,05,15,21,31.20
2015,07,05,15,22,31.30
2015,07,05,15,23,31.30
2015,07,05,15,24,31.30
2015,07,05,15,25,31.30
2015,07,05,15,26,31.40
2015,07,05,15,27,31.40
2015,07,05,15,28,31.50
2015,07,05,15,29,31.60
2015,07,05,15,30,31.60
2015,07,05,15,31,31.70
2015,07,05,15,32,31.70
2015,07,05,15,33,31.80
2015,07,05,15,34,31.80
2015,07,05,15,35,31.80
2015,07,05,15,36,31.80
2015,07,05,15,37,31.80
2015,07,05,15,38,31.90
2015,07,05,15,39,31.90
2015,07,05,15,40,31.90
2015,07,05,15,41,32.00
2015,07,05,15,42,32.00
2015,07,05,15,43,32.10
2015,07,05,15,44,32.20
2015,07,05,15,45,32.10
2015,07,05,15,46,32.00
2015,07,05,15,47,31.80
2015,07,05,15,48,31.80
2015,07,05,15,49,31.80
2015,07,05,15,50,31.80
2015,07,05,15,51,31.80
2015,07,05,15,52,31.90
2015,07,05,15,53,31.90
2015,07,05,15,54,31.90
2015,07,05,15,55,31.90
2015,07,05,15,56,31.90
2015,07,05,15,57,32.00
2015,07,05,15,58,32.00
2015,07,05,15,59,32.10
2015,07,05,16,00,32.20
2015,07,05,16,01,32.20
2015,07,05,16,02,32.30
2015,07,05,16,03,32.40
2015,07,05,16,04,32.40
2015,07,05,16,05,32.50
2015,07,05,16,06,32.50
2015,07,05,16,07,32.60
2015,07,05,16,08,32.60
2015,07,05,16,09,32.60
2015,07,05,16,10,32.60
2015,07,05,16,11,32.60
2015,07,05,16,12,32.50
2015,07,05,16,13,32.40
2015,07,05,16,14,32.20
2015,07,05,16,15,32.20
2015,07,05,16,16,32.20
2015,07,05,16,17,32.20
2015,07,05,16,18,32.20
2015,07,05,16,19,32.30
2015,07,05,16,20,32.40
2015,07,05,16,21,32.50
2015,07,05,16,22,32.50
2015,07,05,16,23,32.60
2015,07,05,16,24,32.60
2015,07,05,16,25,32.60
2015,07,05,16,26,32.60
2015,07,05,16,27,32.60
2015,07,05,16,28,32.60
2015,07,05,16,29,32.70
2015,07,05,16,30,32.70
2015,07,05,16,31,32.60
2015,07,05,16,32,32.60
2015,07,05,16,33,32.40
2015,07,05,16,34,32.30
2015,07,05,16,35,32.30
2015,07,05,16,36,32.30
2015,07,05,16,37,32.20
2015,07,05,16,38,32.20
2015,07,05,16,39,32.20
2015,07,05,16,40,32.10
2015,07,05,16,41,32.00
2015,07,05,16,42,32.00
2015,07,05,16,43,32.00
2015,07,05,16,44,32.00
2015,07,05,16,45,31.90
2015,07,05,16,46,31.90
2015,07,05,16,47,31.90
2015,07,05,16,48,32.00
2015,07,05,16,49,32.00
2015,07,05,16,50,32.00
2015,07,05,16,51,32.00
2015,07,05,16,52,32.00
2015,07,05,16,53,31.90
2015,07,05,16,54,31.90
2015,07,05,16,55,32.00
2015,07,05,16,56,31.90
2015,07,05,16,57,31.90
2015,07,05,16,58,31.80
2015,07,05,16,59,31.90
2015,07,05,17,00,31.90
2015,07,05,17,01,32.00
2015,07,05,17,02,32.00
2015,07,05,17,03,32.10
2015,07,05,17,04,32.10
2015,07,05,17,05,32.10
2015,07,05,17,06,32.10
2015,07,05,17,07,32.10
2015,07,05,17,08,32.10
2015,07,05,17,09,32.10
2015,07,05,17,10,32.00
2015,07,05,17,11,32.10
2015,07,05,17,12,32.10
2015,07,05,17,13,32.10
2015,07,05,17,14,32.00
2015,07,05,17,15,32.00
2015,07,05,17,16,32.00
2015,07,05,17,17,32.00
2015,07,05,17,18,32.00
2015,07,05,17,19,32.00